Date_Time,Julian_Date,Latitude,Longitude,Instrument_Depth,Water_Salinity
(yyyy-mm-dd hh:mn:ss UTC),(JD),(+ deg. North),(+ deg. East),(m),(ppt)
1981-10-22 22:30:00 UTC,2444900.437500,29.7139,-93.4733,0049,26.9000
1981-10-22 23:00:00 UTC,2444900.458333,29.7139,-93.4733,0049,27.0000
1981-10-22 23:30:00 UTC,2444900.479167,29.7139,-93.4733,0049,27.2000
1981-10-23 00:00:00 UTC,2444900.500000,29.7139,-93.4733,0049,27.4000
1981-10-23 00:30:00 UTC,2444900.520833,29.7139,-93.4733,0049,27.5000
1981-10-23 01:00:00 UTC,2444900.541667,29.7139,-93.4733,0049,27.5000
1981-10-23 01:30:00 UTC,2444900.562500,29.7139,-93.4733,0049,27.6000
1981-10-23 02:00:00 UTC,2444900.583333,29.7139,-93.4733,0049,27.7000
1981-10-23 02:30:00 UTC,2444900.604167,29.7139,-93.4733,0049,27.8000
1981-10-23 03:00:00 UTC,2444900.625000,29.7139,-93.4733,0049,27.8000
1981-10-23 03:30:00 UTC,2444900.645833,29.7139,-93.4733,0049,27.8000
1981-10-23 04:00:00 UTC,2444900.666667,29.7139,-93.4733,0049,27.9000
1981-10-23 04:30:00 UTC,2444900.687500,29.7139,-93.4733,0049,28.0000
1981-10-23 05:00:00 UTC,2444900.708333,29.7139,-93.4733,0049,28.0000
1981-10-23 05:30:00 UTC,2444900.729167,29.7139,-93.4733,0049,28.0000
1981-10-23 06:00:00 UTC,2444900.750000,29.7139,-93.4733,0049,28.0000
1981-10-23 06:30:00 UTC,2444900.770833,29.7139,-93.4733,0049,28.1000
1981-10-23 07:00:00 UTC,2444900.791667,29.7139,-93.4733,0049,28.2000
1981-10-23 07:30:00 UTC,2444900.812500,29.7139,-93.4733,0049,28.1000
1981-10-23 08:00:00 UTC,2444900.833333,29.7139,-93.4733,0049,27.9000
1981-10-23 08:30:00 UTC,2444900.854167,29.7139,-93.4733,0049,27.8000
1981-10-23 09:00:00 UTC,2444900.875000,29.7139,-93.4733,0049,27.7000
1981-10-23 09:30:00 UTC,2444900.895833,29.7139,-93.4733,0049,27.7000
1981-10-23 10:00:00 UTC,2444900.916667,29.7139,-93.4733,0049,27.6000
1981-10-23 10:30:00 UTC,2444900.937500,29.7139,-93.4733,0049,27.5000
1981-10-23 11:00:00 UTC,2444900.958333,29.7139,-93.4733,0049,27.5000
1981-10-23 11:30:00 UTC,2444900.979167,29.7139,-93.4733,0049,27.4000
1981-10-23 12:00:00 UTC,2444901.000000,29.7139,-93.4733,0049,27.4000
1981-10-23 12:30:00 UTC,2444901.020833,29.7139,-93.4733,0049,27.4000
1981-10-23 13:00:00 UTC,2444901.041667,29.7139,-93.4733,0049,27.3000
1981-10-23 13:30:00 UTC,2444901.062500,29.7139,-93.4733,0049,27.3000
1981-10-23 14:00:00 UTC,2444901.083333,29.7139,-93.4733,0049,27.2000
1981-10-23 14:30:00 UTC,2444901.104167,29.7139,-93.4733,0049,27.2000
1981-10-23 15:00:00 UTC,2444901.125000,29.7139,-93.4733,0049,27.1000
1981-10-23 15:30:00 UTC,2444901.145833,29.7139,-93.4733,0049,27.1000
1981-10-23 16:00:00 UTC,2444901.166667,29.7139,-93.4733,0049,27.2000
1981-10-23 16:30:00 UTC,2444901.187500,29.7139,-93.4733,0049,27.2000
1981-10-23 17:00:00 UTC,2444901.208333,29.7139,-93.4733,0049,27.3000
1981-10-23 17:30:00 UTC,2444901.229167,29.7139,-93.4733,0049,27.2000
1981-10-23 18:00:00 UTC,2444901.250000,29.7139,-93.4733,0049,27.1000
1981-10-23 18:30:00 UTC,2444901.270833,29.7139,-93.4733,0049,27.1000
1981-10-23 19:00:00 UTC,2444901.291667,29.7139,-93.4733,0049,27.1000
1981-10-23 19:30:00 UTC,2444901.312500,29.7139,-93.4733,0049,27.1000
1981-10-23 20:00:00 UTC,2444901.333333,29.7139,-93.4733,0049,27.1000
1981-10-23 20:30:00 UTC,2444901.354167,29.7139,-93.4733,0049,27.1000
1981-10-23 21:00:00 UTC,2444901.375000,29.7139,-93.4733,0049,27.2000
1981-10-23 21:30:00 UTC,2444901.395833,29.7139,-93.4733,0049,27.2000
1981-10-23 22:00:00 UTC,2444901.416667,29.7139,-93.4733,0049,27.2000
1981-10-23 22:30:00 UTC,2444901.437500,29.7139,-93.4733,0049,27.2000
1981-10-23 23:00:00 UTC,2444901.458333,29.7139,-93.4733,0049,27.3000
1981-10-23 23:30:00 UTC,2444901.479167,29.7139,-93.4733,0049,27.2000
1981-10-24 00:00:00 UTC,2444901.500000,29.7139,-93.4733,0049,27.0000
1981-10-24 00:30:00 UTC,2444901.520833,29.7139,-93.4733,0049,26.8000
1981-10-24 01:00:00 UTC,2444901.541667,29.7139,-93.4733,0049,26.7000
1981-10-24 01:30:00 UTC,2444901.562500,29.7139,-93.4733,0049,26.5000
1981-10-24 02:00:00 UTC,2444901.583333,29.7139,-93.4733,0049,26.3000
1981-10-24 02:30:00 UTC,2444901.604167,29.7139,-93.4733,0049,26.2000
1981-10-24 03:00:00 UTC,2444901.625000,29.7139,-93.4733,0049,26.1000
1981-10-24 03:30:00 UTC,2444901.645833,29.7139,-93.4733,0049,26.1000
1981-10-24 04:00:00 UTC,2444901.666667,29.7139,-93.4733,0049,26.1000
1981-10-24 04:30:00 UTC,2444901.687500,29.7139,-93.4733,0049,26.2000
1981-10-24 05:00:00 UTC,2444901.708333,29.7139,-93.4733,0049,26.4000
1981-10-24 05:30:00 UTC,2444901.729167,29.7139,-93.4733,0049,26.6000
1981-10-24 06:00:00 UTC,2444901.750000,29.7139,-93.4733,0049,26.7000
1981-10-24 06:30:00 UTC,2444901.770833,29.7139,-93.4733,0049,26.8000
1981-10-24 07:00:00 UTC,2444901.791667,29.7139,-93.4733,0049,27.2000
1981-10-24 07:30:00 UTC,2444901.812500,29.7139,-93.4733,0049,27.8000
1981-10-24 08:00:00 UTC,2444901.833333,29.7139,-93.4733,0049,28.3000
1981-10-24 08:30:00 UTC,2444901.854167,29.7139,-93.4733,0049,28.6000
1981-10-24 09:00:00 UTC,2444901.875000,29.7139,-93.4733,0049,28.8000
1981-10-24 09:30:00 UTC,2444901.895833,29.7139,-93.4733,0049,29.0000
1981-10-24 10:00:00 UTC,2444901.916667,29.7139,-93.4733,0049,29.1000
1981-10-24 10:30:00 UTC,2444901.937500,29.7139,-93.4733,0049,29.1000
1981-10-24 11:00:00 UTC,2444901.958333,29.7139,-93.4733,0049,29.1000
1981-10-24 11:30:00 UTC,2444901.979167,29.7139,-93.4733,0049,29.0000
1981-10-24 12:00:00 UTC,2444902.000000,29.7139,-93.4733,0049,28.8000
1981-10-24 12:30:00 UTC,2444902.020833,29.7139,-93.4733,0049,28.7000
1981-10-24 13:00:00 UTC,2444902.041667,29.7139,-93.4733,0049,28.7000
1981-10-24 13:30:00 UTC,2444902.062500,29.7139,-93.4733,0049,28.7000
1981-10-24 14:00:00 UTC,2444902.083333,29.7139,-93.4733,0049,28.8000
1981-10-24 14:30:00 UTC,2444902.104167,29.7139,-93.4733,0049,28.9000
1981-10-24 15:00:00 UTC,2444902.125000,29.7139,-93.4733,0049,28.9000
1981-10-24 15:30:00 UTC,2444902.145833,29.7139,-93.4733,0049,29.0000
1981-10-24 16:00:00 UTC,2444902.166667,29.7139,-93.4733,0049,29.0000
1981-10-24 16:30:00 UTC,2444902.187500,29.7139,-93.4733,0049,29.1000
1981-10-24 17:00:00 UTC,2444902.208333,29.7139,-93.4733,0049,29.1000
1981-10-24 17:30:00 UTC,2444902.229167,29.7139,-93.4733,0049,29.2000
1981-10-24 18:00:00 UTC,2444902.250000,29.7139,-93.4733,0049,29.2000
1981-10-24 18:30:00 UTC,2444902.270833,29.7139,-93.4733,0049,29.2000
1981-10-24 19:00:00 UTC,2444902.291667,29.7139,-93.4733,0049,29.3000
1981-10-24 19:30:00 UTC,2444902.312500,29.7139,-93.4733,0049,29.2000
1981-10-24 20:00:00 UTC,2444902.333333,29.7139,-93.4733,0049,29.2000
1981-10-24 20:30:00 UTC,2444902.354167,29.7139,-93.4733,0049,29.3000
1981-10-24 21:00:00 UTC,2444902.375000,29.7139,-93.4733,0049,29.3000
1981-10-24 21:30:00 UTC,2444902.395833,29.7139,-93.4733,0049,29.3000
1981-10-24 22:00:00 UTC,2444902.416667,29.7139,-93.4733,0049,29.3000
1981-10-24 22:30:00 UTC,2444902.437500,29.7139,-93.4733,0049,29.2000
1981-10-24 23:00:00 UTC,2444902.458333,29.7139,-93.4733,0049,29.2000
1981-10-24 23:30:00 UTC,2444902.479167,29.7139,-93.4733,0049,29.2000
1981-10-25 00:00:00 UTC,2444902.500000,29.7139,-93.4733,0049,29.2000
1981-10-25 00:30:00 UTC,2444902.520833,29.7139,-93.4733,0049,29.2000
1981-10-25 01:00:00 UTC,2444902.541667,29.7139,-93.4733,0049,29.2000
1981-10-25 01:30:00 UTC,2444902.562500,29.7139,-93.4733,0049,29.2000
1981-10-25 02:00:00 UTC,2444902.583333,29.7139,-93.4733,0049,29.2000
1981-10-25 02:30:00 UTC,2444902.604167,29.7139,-93.4733,0049,29.2000
1981-10-25 03:00:00 UTC,2444902.625000,29.7139,-93.4733,0049,29.2000
1981-10-25 03:30:00 UTC,2444902.645833,29.7139,-93.4733,0049,29.2000
1981-10-25 04:00:00 UTC,2444902.666667,29.7139,-93.4733,0049,29.2000
1981-10-25 04:30:00 UTC,2444902.687500,29.7139,-93.4733,0049,29.2000
1981-10-25 05:00:00 UTC,2444902.708333,29.7139,-93.4733,0049,29.2000
1981-10-25 05:30:00 UTC,2444902.729167,29.7139,-93.4733,0049,29.2000
1981-10-25 06:00:00 UTC,2444902.750000,29.7139,-93.4733,0049,29.2000
1981-10-25 06:30:00 UTC,2444902.770833,29.7139,-93.4733,0049,29.2000
1981-10-25 07:00:00 UTC,2444902.791667,29.7139,-93.4733,0049,29.3000
1981-10-25 07:30:00 UTC,2444902.812500,29.7139,-93.4733,0049,29.3000
1981-10-25 08:00:00 UTC,2444902.833333,29.7139,-93.4733,0049,29.3000
1981-10-25 08:30:00 UTC,2444902.854167,29.7139,-93.4733,0049,29.3000
1981-10-25 09:00:00 UTC,2444902.875000,29.7139,-93.4733,0049,29.3000
1981-10-25 09:30:00 UTC,2444902.895833,29.7139,-93.4733,0049,29.4000
1981-10-25 10:00:00 UTC,2444902.916667,29.7139,-93.4733,0049,29.4000
1981-10-25 10:30:00 UTC,2444902.937500,29.7139,-93.4733,0049,29.4000
1981-10-25 11:00:00 UTC,2444902.958333,29.7139,-93.4733,0049,29.4000
1981-10-25 11:30:00 UTC,2444902.979167,29.7139,-93.4733,0049,29.4000
1981-10-25 12:00:00 UTC,2444903.000000,29.7139,-93.4733,0049,29.4000
1981-10-25 12:30:00 UTC,2444903.020833,29.7139,-93.4733,0049,29.4000
1981-10-25 13:00:00 UTC,2444903.041667,29.7139,-93.4733,0049,29.3000
1981-10-25 13:30:00 UTC,2444903.062500,29.7139,-93.4733,0049,29.3000
1981-10-25 14:00:00 UTC,2444903.083333,29.7139,-93.4733,0049,29.4000
1981-10-25 14:30:00 UTC,2444903.104167,29.7139,-93.4733,0049,29.4000
1981-10-25 15:00:00 UTC,2444903.125000,29.7139,-93.4733,0049,29.4000
1981-10-25 15:30:00 UTC,2444903.145833,29.7139,-93.4733,0049,29.4000
1981-10-25 16:00:00 UTC,2444903.166667,29.7139,-93.4733,0049,29.5000
1981-10-25 16:30:00 UTC,2444903.187500,29.7139,-93.4733,0049,29.5000
1981-10-25 17:00:00 UTC,2444903.208333,29.7139,-93.4733,0049,29.6000
1981-10-25 17:30:00 UTC,2444903.229167,29.7139,-93.4733,0049,29.7000
1981-10-25 18:00:00 UTC,2444903.250000,29.7139,-93.4733,0049,29.7000
1981-10-25 18:30:00 UTC,2444903.270833,29.7139,-93.4733,0049,29.8000
1981-10-25 19:00:00 UTC,2444903.291667,29.7139,-93.4733,0049,29.8000
1981-10-25 19:30:00 UTC,2444903.312500,29.7139,-93.4733,0049,29.8000
1981-10-25 20:00:00 UTC,2444903.333333,29.7139,-93.4733,0049,29.8000
1981-10-25 20:30:00 UTC,2444903.354167,29.7139,-93.4733,0049,29.8000
1981-10-25 21:00:00 UTC,2444903.375000,29.7139,-93.4733,0049,29.8000
1981-10-25 21:30:00 UTC,2444903.395833,29.7139,-93.4733,0049,29.8000
1981-10-25 22:00:00 UTC,2444903.416667,29.7139,-93.4733,0049,29.8000
1981-10-25 22:30:00 UTC,2444903.437500,29.7139,-93.4733,0049,29.8000
1981-10-25 23:00:00 UTC,2444903.458333,29.7139,-93.4733,0049,29.8000
1981-10-25 23:30:00 UTC,2444903.479167,29.7139,-93.4733,0049,29.8000
1981-10-26 00:00:00 UTC,2444903.500000,29.7139,-93.4733,0049,29.8000
1981-10-26 00:30:00 UTC,2444903.520833,29.7139,-93.4733,0049,29.8000
1981-10-26 01:00:00 UTC,2444903.541667,29.7139,-93.4733,0049,29.8000
1981-10-26 01:30:00 UTC,2444903.562500,29.7139,-93.4733,0049,29.9000
1981-10-26 02:00:00 UTC,2444903.583333,29.7139,-93.4733,0049,29.9000
1981-10-26 02:30:00 UTC,2444903.604167,29.7139,-93.4733,0049,29.9000
1981-10-26 03:00:00 UTC,2444903.625000,29.7139,-93.4733,0049,29.9000
1981-10-26 03:30:00 UTC,2444903.645833,29.7139,-93.4733,0049,29.9000
1981-10-26 04:00:00 UTC,2444903.666667,29.7139,-93.4733,0049,29.9000
1981-10-26 04:30:00 UTC,2444903.687500,29.7139,-93.4733,0049,29.9000
1981-10-26 05:00:00 UTC,2444903.708333,29.7139,-93.4733,0049,29.9000
1981-10-26 05:30:00 UTC,2444903.729167,29.7139,-93.4733,0049,29.9000
1981-10-26 06:00:00 UTC,2444903.750000,29.7139,-93.4733,0049,29.9000
1981-10-26 06:30:00 UTC,2444903.770833,29.7139,-93.4733,0049,29.9000
1981-10-26 07:00:00 UTC,2444903.791667,29.7139,-93.4733,0049,29.8000
1981-10-26 07:30:00 UTC,2444903.812500,29.7139,-93.4733,0049,29.8000
1981-10-26 08:00:00 UTC,2444903.833333,29.7139,-93.4733,0049,29.8000
1981-10-26 08:30:00 UTC,2444903.854167,29.7139,-93.4733,0049,29.8000
1981-10-26 09:00:00 UTC,2444903.875000,29.7139,-93.4733,0049,29.8000
1981-10-26 09:30:00 UTC,2444903.895833,29.7139,-93.4733,0049,29.8000
1981-10-26 10:00:00 UTC,2444903.916667,29.7139,-93.4733,0049,29.7000
1981-10-26 10:30:00 UTC,2444903.937500,29.7139,-93.4733,0049,29.7000
1981-10-26 11:00:00 UTC,2444903.958333,29.7139,-93.4733,0049,29.7000
1981-10-26 11:30:00 UTC,2444903.979167,29.7139,-93.4733,0049,29.7000
1981-10-26 12:00:00 UTC,2444904.000000,29.7139,-93.4733,0049,29.7000
1981-10-26 12:30:00 UTC,2444904.020833,29.7139,-93.4733,0049,29.7000
1981-10-26 13:00:00 UTC,2444904.041667,29.7139,-93.4733,0049,29.7000
1981-10-26 13:30:00 UTC,2444904.062500,29.7139,-93.4733,0049,29.7000
1981-10-26 14:00:00 UTC,2444904.083333,29.7139,-93.4733,0049,29.7000
1981-10-26 14:30:00 UTC,2444904.104167,29.7139,-93.4733,0049,29.7000
1981-10-26 15:00:00 UTC,2444904.125000,29.7139,-93.4733,0049,29.7000
1981-10-26 15:30:00 UTC,2444904.145833,29.7139,-93.4733,0049,29.7000
1981-10-26 16:00:00 UTC,2444904.166667,29.7139,-93.4733,0049,29.7000
1981-10-26 16:30:00 UTC,2444904.187500,29.7139,-93.4733,0049,29.8000
1981-10-26 17:00:00 UTC,2444904.208333,29.7139,-93.4733,0049,29.8000
1981-10-26 17:30:00 UTC,2444904.229167,29.7139,-93.4733,0049,29.9000
1981-10-26 18:00:00 UTC,2444904.250000,29.7139,-93.4733,0049,29.9000
1981-10-26 18:30:00 UTC,2444904.270833,29.7139,-93.4733,0049,30.0000
1981-10-26 19:00:00 UTC,2444904.291667,29.7139,-93.4733,0049,30.1000
1981-10-26 19:30:00 UTC,2444904.312500,29.7139,-93.4733,0049,30.1000
1981-10-26 20:00:00 UTC,2444904.333333,29.7139,-93.4733,0049,30.2000
1981-10-26 20:30:00 UTC,2444904.354167,29.7139,-93.4733,0049,30.2000
1981-10-26 21:00:00 UTC,2444904.375000,29.7139,-93.4733,0049,30.2000
1981-10-26 21:30:00 UTC,2444904.395833,29.7139,-93.4733,0049,30.2000
1981-10-26 22:00:00 UTC,2444904.416667,29.7139,-93.4733,0049,30.3000
1981-10-26 22:30:00 UTC,2444904.437500,29.7139,-93.4733,0049,30.3000
1981-10-26 23:00:00 UTC,2444904.458333,29.7139,-93.4733,0049,30.4000
1981-10-26 23:30:00 UTC,2444904.479167,29.7139,-93.4733,0049,30.4000
1981-10-27 00:00:00 UTC,2444904.500000,29.7139,-93.4733,0049,30.4000
1981-10-27 00:30:00 UTC,2444904.520833,29.7139,-93.4733,0049,30.4000
1981-10-27 01:00:00 UTC,2444904.541667,29.7139,-93.4733,0049,30.4000
1981-10-27 01:30:00 UTC,2444904.562500,29.7139,-93.4733,0049,30.4000
1981-10-27 02:00:00 UTC,2444904.583333,29.7139,-93.4733,0049,30.4000
1981-10-27 02:30:00 UTC,2444904.604167,29.7139,-93.4733,0049,30.4000
1981-10-27 03:00:00 UTC,2444904.625000,29.7139,-93.4733,0049,30.4000
1981-10-27 03:30:00 UTC,2444904.645833,29.7139,-93.4733,0049,30.4000
1981-10-27 04:00:00 UTC,2444904.666667,29.7139,-93.4733,0049,30.4000
1981-10-27 04:30:00 UTC,2444904.687500,29.7139,-93.4733,0049,30.4000
1981-10-27 05:00:00 UTC,2444904.708333,29.7139,-93.4733,0049,30.4000
1981-10-27 05:30:00 UTC,2444904.729167,29.7139,-93.4733,0049,30.4000
1981-10-27 06:00:00 UTC,2444904.750000,29.7139,-93.4733,0049,30.4000
1981-10-27 06:30:00 UTC,2444904.770833,29.7139,-93.4733,0049,30.4000
1981-10-27 07:00:00 UTC,2444904.791667,29.7139,-93.4733,0049,30.3000
1981-10-27 07:30:00 UTC,2444904.812500,29.7139,-93.4733,0049,30.3000
1981-10-27 08:00:00 UTC,2444904.833333,29.7139,-93.4733,0049,30.3000
1981-10-27 08:30:00 UTC,2444904.854167,29.7139,-93.4733,0049,30.3000
1981-10-27 09:00:00 UTC,2444904.875000,29.7139,-93.4733,0049,30.3000
1981-10-27 09:30:00 UTC,2444904.895833,29.7139,-93.4733,0049,30.3000
1981-10-27 10:00:00 UTC,2444904.916667,29.7139,-93.4733,0049,30.3000
1981-10-27 10:30:00 UTC,2444904.937500,29.7139,-93.4733,0049,30.3000
1981-10-27 11:00:00 UTC,2444904.958333,29.7139,-93.4733,0049,30.2000
1981-10-27 11:30:00 UTC,2444904.979167,29.7139,-93.4733,0049,30.2000
1981-10-27 12:00:00 UTC,2444905.000000,29.7139,-93.4733,0049,30.2000
1981-10-27 12:30:00 UTC,2444905.020833,29.7139,-93.4733,0049,30.1000
1981-10-27 13:00:00 UTC,2444905.041667,29.7139,-93.4733,0049,30.1000
1981-10-27 13:30:00 UTC,2444905.062500,29.7139,-93.4733,0049,30.0000
1981-10-27 14:00:00 UTC,2444905.083333,29.7139,-93.4733,0049,30.0000
1981-10-27 14:30:00 UTC,2444905.104167,29.7139,-93.4733,0049,30.0000
1981-10-27 15:00:00 UTC,2444905.125000,29.7139,-93.4733,0049,30.0000
1981-10-27 15:30:00 UTC,2444905.145833,29.7139,-93.4733,0049,30.0000
1981-10-27 16:00:00 UTC,2444905.166667,29.7139,-93.4733,0049,30.0000
1981-10-27 16:30:00 UTC,2444905.187500,29.7139,-93.4733,0049,30.0000
1981-10-27 17:00:00 UTC,2444905.208333,29.7139,-93.4733,0049,30.1000
1981-10-27 17:30:00 UTC,2444905.229167,29.7139,-93.4733,0049,30.1000
1981-10-27 18:00:00 UTC,2444905.250000,29.7139,-93.4733,0049,30.1000
1981-10-27 18:30:00 UTC,2444905.270833,29.7139,-93.4733,0049,30.1000
1981-10-27 19:00:00 UTC,2444905.291667,29.7139,-93.4733,0049,30.1000
1981-10-27 19:30:00 UTC,2444905.312500,29.7139,-93.4733,0049,30.1000
1981-10-27 20:00:00 UTC,2444905.333333,29.7139,-93.4733,0049,30.1000
1981-10-27 20:30:00 UTC,2444905.354167,29.7139,-93.4733,0049,30.1000
1981-10-27 21:00:00 UTC,2444905.375000,29.7139,-93.4733,0049,30.0000
1981-10-27 21:30:00 UTC,2444905.395833,29.7139,-93.4733,0049,29.9000
1981-10-27 22:00:00 UTC,2444905.416667,29.7139,-93.4733,0049,29.9000
1981-10-27 22:30:00 UTC,2444905.437500,29.7139,-93.4733,0049,29.8000
1981-10-27 23:00:00 UTC,2444905.458333,29.7139,-93.4733,0049,29.8000
1981-10-27 23:30:00 UTC,2444905.479167,29.7139,-93.4733,0049,29.8000
1981-10-28 00:00:00 UTC,2444905.500000,29.7139,-93.4733,0049,29.8000
1981-10-28 00:30:00 UTC,2444905.520833,29.7139,-93.4733,0049,29.7000
1981-10-28 01:00:00 UTC,2444905.541667,29.7139,-93.4733,0049,29.7000
1981-10-28 01:30:00 UTC,2444905.562500,29.7139,-93.4733,0049,29.7000
1981-10-28 02:00:00 UTC,2444905.583333,29.7139,-93.4733,0049,29.6000
1981-10-28 02:30:00 UTC,2444905.604167,29.7139,-93.4733,0049,29.5000
1981-10-28 03:00:00 UTC,2444905.625000,29.7139,-93.4733,0049,29.4000
1981-10-28 03:30:00 UTC,2444905.645833,29.7139,-93.4733,0049,29.4000
1981-10-28 04:00:00 UTC,2444905.666667,29.7139,-93.4733,0049,29.4000
1981-10-28 04:30:00 UTC,2444905.687500,29.7139,-93.4733,0049,29.4000
1981-10-28 05:00:00 UTC,2444905.708333,29.7139,-93.4733,0049,29.3000
1981-10-28 05:30:00 UTC,2444905.729167,29.7139,-93.4733,0049,29.3000
1981-10-28 06:00:00 UTC,2444905.750000,29.7139,-93.4733,0049,29.3000
1981-10-28 06:30:00 UTC,2444905.770833,29.7139,-93.4733,0049,29.2000
1981-10-28 07:00:00 UTC,2444905.791667,29.7139,-93.4733,0049,29.2000
1981-10-28 07:30:00 UTC,2444905.812500,29.7139,-93.4733,0049,29.2000
1981-10-28 08:00:00 UTC,2444905.833333,29.7139,-93.4733,0049,29.2000
1981-10-28 08:30:00 UTC,2444905.854167,29.7139,-93.4733,0049,29.2000
1981-10-28 09:00:00 UTC,2444905.875000,29.7139,-93.4733,0049,29.2000
1981-10-28 09:30:00 UTC,2444905.895833,29.7139,-93.4733,0049,29.2000
1981-10-28 10:00:00 UTC,2444905.916667,29.7139,-93.4733,0049,29.1000
1981-10-28 10:30:00 UTC,2444905.937500,29.7139,-93.4733,0049,29.1000
1981-10-28 11:00:00 UTC,2444905.958333,29.7139,-93.4733,0049,29.1000
1981-10-28 11:30:00 UTC,2444905.979167,29.7139,-93.4733,0049,29.1000
1981-10-28 12:00:00 UTC,2444906.000000,29.7139,-93.4733,0049,29.1000
1981-10-28 12:30:00 UTC,2444906.020833,29.7139,-93.4733,0049,29.1000
1981-10-28 13:00:00 UTC,2444906.041667,29.7139,-93.4733,0049,29.1000
1981-10-28 13:30:00 UTC,2444906.062500,29.7139,-93.4733,0049,29.0000
1981-10-28 14:00:00 UTC,2444906.083333,29.7139,-93.4733,0049,29.0000
1981-10-28 14:30:00 UTC,2444906.104167,29.7139,-93.4733,0049,28.9000
1981-10-28 15:00:00 UTC,2444906.125000,29.7139,-93.4733,0049,29.0000
1981-10-28 15:30:00 UTC,2444906.145833,29.7139,-93.4733,0049,29.0000
1981-10-28 16:00:00 UTC,2444906.166667,29.7139,-93.4733,0049,29.0000
1981-10-28 16:30:00 UTC,2444906.187500,29.7139,-93.4733,0049,29.0000
1981-10-28 17:00:00 UTC,2444906.208333,29.7139,-93.4733,0049,29.0000
1981-10-28 17:30:00 UTC,2444906.229167,29.7139,-93.4733,0049,29.0000
1981-10-28 18:00:00 UTC,2444906.250000,29.7139,-93.4733,0049,29.0000
1981-10-28 18:30:00 UTC,2444906.270833,29.7139,-93.4733,0049,29.0000
1981-10-28 19:00:00 UTC,2444906.291667,29.7139,-93.4733,0049,29.0000
1981-10-28 19:30:00 UTC,2444906.312500,29.7139,-93.4733,0049,28.9000
1981-10-28 20:00:00 UTC,2444906.333333,29.7139,-93.4733,0049,29.0000
1981-10-28 20:30:00 UTC,2444906.354167,29.7139,-93.4733,0049,29.0000
1981-10-28 21:00:00 UTC,2444906.375000,29.7139,-93.4733,0049,28.9000
1981-10-28 21:30:00 UTC,2444906.395833,29.7139,-93.4733,0049,29.0000
1981-10-28 22:00:00 UTC,2444906.416667,29.7139,-93.4733,0049,29.0000
1981-10-28 22:30:00 UTC,2444906.437500,29.7139,-93.4733,0049,29.0000
1981-10-28 23:00:00 UTC,2444906.458333,29.7139,-93.4733,0049,29.0000
1981-10-28 23:30:00 UTC,2444906.479167,29.7139,-93.4733,0049,29.1000
1981-10-29 00:00:00 UTC,2444906.500000,29.7139,-93.4733,0049,29.0000
1981-10-29 00:30:00 UTC,2444906.520833,29.7139,-93.4733,0049,29.1000
1981-10-29 01:00:00 UTC,2444906.541667,29.7139,-93.4733,0049,29.0000
1981-10-29 01:30:00 UTC,2444906.562500,29.7139,-93.4733,0049,29.0000
1981-10-29 02:00:00 UTC,2444906.583333,29.7139,-93.4733,0049,29.0000
1981-10-29 02:30:00 UTC,2444906.604167,29.7139,-93.4733,0049,28.9000
1981-10-29 03:00:00 UTC,2444906.625000,29.7139,-93.4733,0049,28.9000
1981-10-29 03:30:00 UTC,2444906.645833,29.7139,-93.4733,0049,28.9000
1981-10-29 04:00:00 UTC,2444906.666667,29.7139,-93.4733,0049,28.9000
1981-10-29 04:30:00 UTC,2444906.687500,29.7139,-93.4733,0049,28.9000
1981-10-29 05:00:00 UTC,2444906.708333,29.7139,-93.4733,0049,28.9000
1981-10-29 05:30:00 UTC,2444906.729167,29.7139,-93.4733,0049,28.9000
1981-10-29 06:00:00 UTC,2444906.750000,29.7139,-93.4733,0049,28.9000
1981-10-29 06:30:00 UTC,2444906.770833,29.7139,-93.4733,0049,28.9000
1981-10-29 07:00:00 UTC,2444906.791667,29.7139,-93.4733,0049,29.0000
1981-10-29 07:30:00 UTC,2444906.812500,29.7139,-93.4733,0049,29.0000
1981-10-29 08:00:00 UTC,2444906.833333,29.7139,-93.4733,0049,29.0000
1981-10-29 08:30:00 UTC,2444906.854167,29.7139,-93.4733,0049,29.1000
1981-10-29 09:00:00 UTC,2444906.875000,29.7139,-93.4733,0049,29.0000
1981-10-29 09:30:00 UTC,2444906.895833,29.7139,-93.4733,0049,29.0000
1981-10-29 10:00:00 UTC,2444906.916667,29.7139,-93.4733,0049,29.0000
1981-10-29 10:30:00 UTC,2444906.937500,29.7139,-93.4733,0049,29.0000
1981-10-29 11:00:00 UTC,2444906.958333,29.7139,-93.4733,0049,29.0000
1981-10-29 11:30:00 UTC,2444906.979167,29.7139,-93.4733,0049,29.1000
1981-10-29 12:00:00 UTC,2444907.000000,29.7139,-93.4733,0049,29.1000
1981-10-29 12:30:00 UTC,2444907.020833,29.7139,-93.4733,0049,29.1000
1981-10-29 13:00:00 UTC,2444907.041667,29.7139,-93.4733,0049,29.1000
1981-10-29 13:30:00 UTC,2444907.062500,29.7139,-93.4733,0049,29.1000
1981-10-29 14:00:00 UTC,2444907.083333,29.7139,-93.4733,0049,29.1000
1981-10-29 14:30:00 UTC,2444907.104167,29.7139,-93.4733,0049,29.0000
1981-10-29 15:00:00 UTC,2444907.125000,29.7139,-93.4733,0049,29.1000
1981-10-29 15:30:00 UTC,2444907.145833,29.7139,-93.4733,0049,29.1000
1981-10-29 16:00:00 UTC,2444907.166667,29.7139,-93.4733,0049,29.1000
1981-10-29 16:30:00 UTC,2444907.187500,29.7139,-93.4733,0049,29.1000
1981-10-29 17:00:00 UTC,2444907.208333,29.7139,-93.4733,0049,29.1000
1981-10-29 17:30:00 UTC,2444907.229167,29.7139,-93.4733,0049,29.2000
1981-10-29 18:00:00 UTC,2444907.250000,29.7139,-93.4733,0049,29.2000
1981-10-29 18:30:00 UTC,2444907.270833,29.7139,-93.4733,0049,29.2000
1981-10-29 19:00:00 UTC,2444907.291667,29.7139,-93.4733,0049,29.2000
1981-10-29 19:30:00 UTC,2444907.312500,29.7139,-93.4733,0049,29.2000
1981-10-29 20:00:00 UTC,2444907.333333,29.7139,-93.4733,0049,29.2000
1981-10-29 20:30:00 UTC,2444907.354167,29.7139,-93.4733,0049,29.1000
1981-10-29 21:00:00 UTC,2444907.375000,29.7139,-93.4733,0049,29.1000
1981-10-29 21:30:00 UTC,2444907.395833,29.7139,-93.4733,0049,29.0000
1981-10-29 22:00:00 UTC,2444907.416667,29.7139,-93.4733,0049,29.0000
1981-10-29 22:30:00 UTC,2444907.437500,29.7139,-93.4733,0049,29.0000
1981-10-29 23:00:00 UTC,2444907.458333,29.7139,-93.4733,0049,29.0000
1981-10-29 23:30:00 UTC,2444907.479167,29.7139,-93.4733,0049,29.0000
1981-10-30 00:00:00 UTC,2444907.500000,29.7139,-93.4733,0049,29.0000
1981-10-30 00:30:00 UTC,2444907.520833,29.7139,-93.4733,0049,29.0000
1981-10-30 01:00:00 UTC,2444907.541667,29.7139,-93.4733,0049,29.0000
1981-10-30 01:30:00 UTC,2444907.562500,29.7139,-93.4733,0049,29.0000
1981-10-30 02:00:00 UTC,2444907.583333,29.7139,-93.4733,0049,29.0000
1981-10-30 02:30:00 UTC,2444907.604167,29.7139,-93.4733,0049,29.0000